Meath Environmental Platform

Observations for Trim Market St

Time AQI Temp °C Hum % Pres Pa CO μg/m³ H₂S μg/m³ NO μg/m³ NO₂ μg/m³ O₃ μg/m³ SO₂ μg/m³ PM1 μg/m³ PM2.5 μg/m³ PM10 μg/m³
Tuesday 11 August 2026
14:56 2 43.2 16 67,444 0 0 0 15.03 94.35 8.39 0 3.92 4.32
14:55 2 43.2 16 67,428 0 0 0 14.97 129.8 7.7 0.71 4.47 4.92
14:54 2 43.3 16 67,442 0 0 0 15.27 110.77 9.09 0 3.93 4.32
14:53 2 43.3 15 67,457 0 0 0 16.35 98.08 7.05 1.43 4.5 4.95
14:52 2 43.4 15 67,471 0 0 0 15.24 102.43 8.97 0 3.38 3.72
14:51 2 43.4 15 67,500 0 0 0 15.24 109.68 7.02 0 3.94 4.33
14:50 2 43.4 15 67,471 0 0 0 15.27 91.59 7.93 0 3.94 4.34
14:49 2 43.5 15 67,467 0 0 0 15.25 121.06 8.67 0 3.38 3.72
14:48 2 43.5 15 67,483 0 0 0 15.23 120.41 8.35 0.71 3.95 4.34
14:44 2 43.5 15 67,500 0 0 0 15.06 106.12 7.57 0 3.37 3.71
14:43 2 43.5 15 67,485 0 0 0 15.05 104.46 7.42 0 3.94 4.33
14:42 2 43.5 15 67,479 0 0 0 16.05 99.49 5.63 0.71 4.5 4.95
14:38 2 43.4 16 67,479 0 0 0 16.37 63.6 4.13 0 3.92 4.31
14:31 2 43 16 67,390 0 0 0 24.67 74.25 3.5 0 3.36 3.7
14:30 2 42.9 16 67,386 0 0 0 15.25 74.93 6.22 0 3.93 4.32
14:28 2 42.8 15 67,382 0 0 0 15.53 84.47 5.05 0 3.37 3.71
14:26 2 42.8 16 67,386 0 0 0 15.15 120.94 6.39 0 3.37 3.71
14:25 2 42.8 16 67,386 0 0 0 15.29 84.12 6.71 0 3.93 4.32
14:24 2 42.7 16 67,388 0 0 0 14.81 108.91 7.33 0.71 4.48 4.93
14:22 2 42.6 16 67,365 0 0 0 15.13 95.74 5.68 0.71 3.92 4.32